Location: Audruicq
(50.8780°N, 2.0797°E)
Time: 15:19:36
(UTC+00:00)

Meteor 1-5 Rocket - Pass Details

Date: 15 May 2026
Orbit: 788 x 913 km, 81.2° (Epoch: 10 June)

Event Time Altitude Azimuth Distance (km) Brightness Sun altitude
Rises 21:04:45 0° 348° (NNW) 3,446 8.6 -11.4°
Reaches altitude 10° 21:07:10 10° 351° (N) 2,523 7.7 -11.7°
Maximum altitude 21:12:55 72° 76° (ENE) 935 4.3 -12.2°
Enters shadow 21:17:41 16° 159° (SSE) 2,159 5.7 -12.7°
